When you browse on this site, cookies collect data to enhance your experience and personalize the content and advertising you see.
Visit our Privacy Policy to learn more. By continuing to use the site, you agree to this use of cookies and data.
  • In Österreich
  • Länderverzeichnis
  • Für 7 Tage
  • Wassertemperatur
  • Satellitenkarten
  • Wetterkarte
  • News
  • Widgets
  • user-avatar
    Anmelden

    Stündliche Wetter Krasinek

    Heute, 21 Februar, Donnerstag

    Zeit Temperatur Niederschläge Wind Luftdruck Luftfeuchtigkeit
    00:00 +2°C° 0 mm 2 m/S 760 mmHg 91%
    01:00 +3°C° 0 mm 2 m/S 760 mmHg 95%
    02:00 +3°C° 0 mm 2 m/S 760 mmHg 95%
    03:00 +2°C° 0 mm 2 m/S 759 mmHg 96%
    04:00 +2°C° 0 mm 2 m/S 759 mmHg 96%
    05:00 +3°C° 0.1 mm 1 m/S 759 mmHg 97%
    06:00 +3°C° 0.1 mm 1 m/S 759 mmHg 97%
    07:00 +3°C° 0 mm 1 m/S 760 mmHg 96%
    08:00 +3°C° 0.3 mm 1 m/S 760 mmHg 94%
    09:00 +3°C° 0.3 mm 2 m/S 760 mmHg 91%
    10:00 +3°C° 0.3 mm 2 m/S 760 mmHg 89%
    11:00 +2°C° 0.6 mm 3 m/S 760 mmHg 88%
    12:00 +2°C° 0.6 mm 3 m/S 759 mmHg 86%
    13:00 0°C° 0 mm 4 m/S 759 mmHg 83%
    14:00 0°C° 0.8 mm 4 m/S 759 mmHg 85%
    15:00 -1°C° 0.8 mm 4 m/S 759 mmHg 88%
    16:00 -1°C° 0.8 mm 5 m/S 759 mmHg 91%
    17:00 -2°C° 0.6 mm 5 m/S 759 mmHg 91%
    18:00 -2°C° 0.6 mm 5 m/S 759 mmHg 92%
    19:00 -4°C° 0.6 mm 5 m/S 760 mmHg 92%
    20:00 -4°C° 0.4 mm 5 m/S 760 mmHg 89%
    21:00 -4°C° 0.4 mm 6 m/S 761 mmHg 86%
    22:00 -5°C° 0.4 mm 6 m/S 761 mmHg 83%
    23:00 -5°C° 0 mm 5 m/S 762 mmHg 79%

    Morgen, 22 Februar, Freitag

    Zeit Temperatur Niederschläge Wind Luftdruck Luftfeuchtigkeit
    00:00 -5°C° 0 mm 5 m/S 763 mmHg 76%
    01:00 -6°C° 0 mm 5 m/S 764 mmHg 72%
    02:00 -7°C° 0 mm 5 m/S 765 mmHg 73%
    03:00 -7°C° 0 mm 5 m/S 766 mmHg 73%
    04:00 -8°C° 0 mm 5 m/S 767 mmHg 73%
    05:00 -8°C° 0 mm 5 m/S 769 mmHg 73%
    06:00 -8°C° 0 mm 4 m/S 770 mmHg 74%
    07:00 -9°C° 0 mm 4 m/S 771 mmHg 74%
    08:00 -8°C° 0 mm 4 m/S 771 mmHg 69%
    09:00 -7°C° 0 mm 4 m/S 772 mmHg 64%
    10:00 -7°C° 0 mm 4 m/S 773 mmHg 59%
    11:00 -5°C° 0 mm 4 m/S 774 mmHg 57%
    12:00 -5°C° 0 mm 4 m/S 774 mmHg 54%
    13:00 -4°C° 0 mm 3 m/S 775 mmHg 52%
    14:00 -4°C° 0 mm 3 m/S 775 mmHg 55%
    15:00 -4°C° 0 mm 3 m/S 775 mmHg 58%
    16:00 -5°C° 0 mm 3 m/S 776 mmHg 61%
    17:00 -4°C° 0 mm 2 m/S 776 mmHg 64%
    18:00 -5°C° 0 mm 2 m/S 776 mmHg 66%
    19:00 -6°C° 0 mm 2 m/S 777 mmHg 69%
    20:00 -6°C° 0 mm 2 m/S 777 mmHg 69%
    21:00 -4°C° 0 mm 1 m/S 777 mmHg 69%
    22:00 -4°C° 0 mm 1 m/S 778 mmHg 69%
    23:00 -4°C° 0 mm 1 m/S 778 mmHg 69%

    übermorgen, 23 Februar, Samstag

    Zeit Temperatur Niederschläge Wind Luftdruck Luftfeuchtigkeit
    00:00 -5°C° 0 mm 0 m/S 778 mmHg 68%
    01:00 -5°C° 0 mm 0 m/S 778 mmHg 68%
    02:00 -4°C° 0 mm 1 m/S 778 mmHg 68%
    03:00 -4°C° 0 mm 1 m/S 777 mmHg 68%
    04:00 -6°C° 0 mm 2 m/S 777 mmHg 68%
    05:00 -6°C° 0 mm 2 m/S 777 mmHg 69%
    06:00 -6°C° 0 mm 2 m/S 777 mmHg 69%
    07:00 -6°C° 0 mm 2 m/S 778 mmHg 70%
    08:00 -5°C° 0 mm 2 m/S 778 mmHg 65%
    09:00 -4°C° 0 mm 2 m/S 778 mmHg 61%
    10:00 -4°C° 0 mm 3 m/S 778 mmHg 56%
    11:00 -2°C° 0 mm 3 m/S 777 mmHg 54%
    12:00 -1°C° 0 mm 3 m/S 777 mmHg 52%
    13:00 -1°C° 0 mm 3 m/S 777 mmHg 49%
    14:00 -1°C° 0 mm 3 m/S 776 mmHg 51%
    15:00 -1°C° 0 mm 3 m/S 776 mmHg 52%
    16:00 -1°C° 0 mm 3 m/S 775 mmHg 53%
    17:00 -1°C° 0 mm 3 m/S 775 mmHg 55%
    18:00 -1°C° 0 mm 3 m/S 775 mmHg 56%
    19:00 -2°C° 0 mm 3 m/S 775 mmHg 58%
    20:00 -3°C° 0 mm 4 m/S 774 mmHg 58%
    21:00 -3°C° 0 mm 4 m/S 774 mmHg 59%
    22:00 -3°C° 0 mm 4 m/S 774 mmHg 59%
    23:00 -3°C° 0 mm 4 m/S 773 mmHg 60%

    24 Februar, Sonntag

    Zeit Temperatur Niederschläge Wind Luftdruck Luftfeuchtigkeit
    00:00 -3°C° 0 mm 4 m/S 773 mmHg 61%
    01:00 -3°C° 0 mm 4 m/S 773 mmHg 62%
    02:00 -3°C° 0 mm 4 m/S 772 mmHg 63%
    03:00 -3°C° 0 mm 4 m/S 772 mmHg 65%
    04:00 -4°C° 0 mm 4 m/S 772 mmHg 67%
    05:00 -2°C° 0 mm 3 m/S 771 mmHg 69%
    06:00 -2°C° 0 mm 3 m/S 771 mmHg 71%
    07:00 -2°C° 0 mm 3 m/S 771 mmHg 73%
    08:00 -1°C° 0 mm 3 m/S 771 mmHg 75%
    09:00 0°C° 0 mm 3 m/S 771 mmHg 77%
    10:00 +1°C° 0 mm 3 m/S 771 mmHg 78%
    11:00 +2°C° 0 mm 3 m/S 771 mmHg 79%
    12:00 +3°C° 0 mm 3 m/S 771 mmHg 80%
    13:00 +4°C° 0 mm 3 m/S 771 mmHg 81%
    14:00 +4°C° 0 mm 3 m/S 770 mmHg 83%
    15:00 +3°C° 0 mm 3 m/S 770 mmHg 86%
    16:00 +4°C° 0 mm 2 m/S 770 mmHg 88%
    17:00 +3°C° 0 mm 2 m/S 770 mmHg 88%
    18:00 +2°C° 0 mm 3 m/S 770 mmHg 89%
    19:00 +1°C° 0 mm 3 m/S 770 mmHg 89%
    20:00 +1°C° 0 mm 3 m/S 770 mmHg 89%
    21:00 +1°C° 0 mm 3 m/S 770 mmHg 89%
    22:00 +1°C° 0 mm 3 m/S 770 mmHg 90%
    23:00 +1°C° 0 mm 3 m/S 770 mmHg 91%

    25 Februar, Montag

    Zeit Temperatur Niederschläge Wind Luftdruck Luftfeuchtigkeit
    00:00 +1°C° 0 mm 3 m/S 770 mmHg 92%
    01:00 +1°C° 0 mm 3 m/S 771 mmHg 93%
    02:00 +1°C° 0 mm 3 m/S 771 mmHg 94%
    03:00 +1°C° 0 mm 3 m/S 771 mmHg 96%
    04:00 +1°C° 0 mm 3 m/S 771 mmHg 97%
    05:00 +2°C° 0 mm 2 m/S 771 mmHg 97%
    06:00 +2°C° 0 mm 2 m/S 772 mmHg 97%
    07:00 +2°C° 0 mm 2 m/S 772 mmHg 98%
    08:00 +3°C° 0 mm 2 m/S 772 mmHg 96%
    09:00 +4°C° 0 mm 2 m/S 772 mmHg 94%
    10:00 +5°C° 0 mm 2 m/S 772 mmHg 93%
    11:00 +5°C° 0 mm 2 m/S 772 mmHg 91%
    12:00 +6°C° 0 mm 2 m/S 772 mmHg 90%
    13:00 +6°C° 0 mm 2 m/S 772 mmHg 88%
    14:00 +6°C° 0 mm 2 m/S 771 mmHg 89%
    15:00 +5°C° 0 mm 2 m/S 771 mmHg 90%
    16:00 +5°C° 0 mm 2 m/S 770 mmHg 91%
    17:00 +5°C° 0 mm 2 m/S 770 mmHg 91%
    18:00 +3°C° 0 mm 3 m/S 770 mmHg 92%
    19:00 +3°C° 0 mm 3 m/S 769 mmHg 92%
    20:00 +2°C° 0 mm 3 m/S 769 mmHg 89%
    21:00 +2°C° 0 mm 3 m/S 769 mmHg 87%
    22:00 +1°C° 0 mm 4 m/S 768 mmHg 84%
    23:00 +1°C° 0 mm 4 m/S 768 mmHg 83%

    26 Februar, Dienstag

    Zeit Temperatur Niederschläge Wind Luftdruck Luftfeuchtigkeit
    00:00 0°C° 0 mm 4 m/S 767 mmHg 83%
    01:00 0°C° 0 mm 4 m/S 767 mmHg 82%
    02:00 0°C° 0 mm 4 m/S 766 mmHg 84%
    03:00 0°C° 0 mm 4 m/S 766 mmHg 86%
    04:00 +1°C° 0 mm 3 m/S 765 mmHg 88%
    05:00 +1°C° 0 mm 3 m/S 765 mmHg 89%
    06:00 +1°C° 0 mm 3 m/S 765 mmHg 90%
    07:00 +1°C° 0 mm 3 m/S 764 mmHg 91%
    08:00 +2°C° 0 mm 3 m/S 764 mmHg 88%
    09:00 +3°C° 0 mm 4 m/S 764 mmHg 86%
    10:00 +4°C° 0 mm 4 m/S 764 mmHg 84%
    11:00 +4°C° 0 mm 4 m/S 764 mmHg 82%
    12:00 +5°C° 0 mm 4 m/S 764 mmHg 81%
    13:00 +5°C° 0 mm 5 m/S 764 mmHg 79%
    14:00 +5°C° 0 mm 5 m/S 764 mmHg 81%
    15:00 +3°C° 0 mm 5 m/S 764 mmHg 84%
    16:00 +3°C° 0 mm 5 m/S 764 mmHg 86%
    17:00 +2°C° 0 mm 5 m/S 764 mmHg 89%
    18:00 +2°C° 0 mm 5 m/S 764 mmHg 91%
    19:00 +1°C° 0 mm 5 m/S 764 mmHg 93%
    20:00 +1°C° 0 mm 5 m/S 765 mmHg 92%
    21:00 +1°C° 0 mm 4 m/S 765 mmHg 91%
    22:00 +1°C° 0 mm 4 m/S 765 mmHg 90%
    23:00 0°C° 0 mm 4 m/S 765 mmHg 90%
    Mehr zeigen